{"data":{"norad_id":65261,"intl_designator":"2025-180C","name":"2025-180C","alt_names":[],"object_type":"PAYLOAD","status":"ACTIVE","operator":null,"country":"TBD","launch_date":"2025-08-19","launch_site_code":"JSC","launch_vehicle":null,"mission":null,"orbit_class":"UNKNOWN","rcs_meters":null,"size_class":null,"mass_kg":null,"dimensions":null,"purposes":[],"wikipedia_slug":null,"has_3d_model":false,"image_url":null,"decayed_at":null,"tle_current":{"epoch":"2026-05-25T05:13:56.952192Z","epoch_age_seconds":52321,"freshness":"FRESH","line1":"1 65261U 25180C   26145.21802028  .00004437  00000+0  23910-3 0  9992","line2":"2 65261  97.5211 272.5822 0014934  46.5715 313.6757 15.15221083 42189","mean_motion":15.15221083,"eccentricity":0.0014934,"inclination_deg":97.5211,"raan_deg":272.5822,"arg_perigee_deg":46.5715,"mean_anomaly_deg":313.6757,"bstar":0.0002391,"rev_number":4218,"period_min":95.03563645966,"perigee_km":510.00531563075,"apogee_km":530.60958952171,"semimajor_km":6898.4444525762,"source":"CELESTRAK","updated_at":"2026-05-25T13:38:05.262319Z"}}}